Regional Weather Roundup
Issued by NWS Columbia, SC

Home | Current Version | Previous Version | Text Only | Print | Product List | Glossary On
Versions: 1 2 3 4 5 6 7 8 9 10 11 12 13 14 15 16 17 18 19 20 21 22 23 24 25 26 27 28 29 30 31 32 33 34 35 36 37 38 39 40 41 42 43 44 45 46 47 48 49 50
000
ASUS42 KCAE 010810
RWRCAE
REGIONAL WEATHER ROUNDUP
NATIONAL WEATHER SERVICE COLUMBIA SC
400 AM EDT MON SEP 01 2014

NOTE: "FAIR" INDICATES FEW OR NO CLOUDS BELOW 12,000 FEET WITH NO
SIGNIFICANT WEATHER AND/OR OBSTRUCTIONS TO VISIBILITY.

NOT ALL STATIONS ARE QUALITY CONTROLLED BY THE NATIONAL
WEATHER SERVICE. USE DATA WITH CAUTION...ESPECIALLY
DEWPOINT OBSERVATIONS.

SCZ001>056-GAZ040-063>065-077-010900-
...UPSTATE SOUTH CAROLINA...

CITY           SKY/WX    TMP DP  RH WIND       PRES   REMARKS
ANDERSON       PTCLDY    72  70  93 CALM      30.11S
LIBERTY        FAIR      70  32  24 CALM      30.12S HAZE
SPARTANBURG    FAIR      73  73 100 SW3       30.10S
CLEMSON        MOCLDY    76  70  82 CALM      30.12S
GREENVILLE     PTCLDY    74  70  87 CALM      30.12S
GREENWOOD      PTCLDY    74  70  87 SW5       30.12R
GREER          PTCLDY    74  70  87 SW7       30.10S
ROCK HILL      PTCLDY    72  71  97 SW6       30.10F
LAURENS        FAIR      72 N/A N/A S3        30.11S


...CENTRAL SOUTH CAROLINA...

CITY           SKY/WX    TMP DP  RH WIND       PRES   REMARKS
COLUMBIA APT   CLEAR     75  71  87 W5        30.08S
COLUMBIA OWENS CLEAR     76  72  87 CALM      30.10R
DARLINGTON     CLEAR     73  70  88 S5        30.09S
FLORENCE       CLEAR     76  73  91 S5        30.08S
MCENTIRE ANGB  PTCLDY    72  72 100 CALM      30.09S FOG
ORANGEBURG     PTCLDY    74  71  91 CALM      30.08F
SUMTER SHAW    CLOUDY    75  74  96 SW2       30.07S
NEWBERRY       FAIR      73  73 100 SW3       30.13S
AIKEN          FAIR      72  72 100 CALM      30.13S FOG
BARNWELL       FAIR      73  73 100 CALM      30.09F
MANNING        FAIR      75 N/A N/A CALM      30.08S
CAMDEN         FAIR      73  72  94 CALM      30.10R FOG
LANCASTER      LGT RAIN  73  73 100 CALM      30.10S
WINNSBORO      FAIR      72  72 100 SW3       30.10R


...EASTERN AND COASTAL SOUTH CAROLINA...

CITY           SKY/WX    TMP DP  RH WIND       PRES   REMARKS
MYRTLE BEACH   CLEAR     79  73  83 CALM      30.09S
N MYRTLE BCH   CLEAR     78  74  87 W3        30.08S
CONWAY         FAIR      72  72 100 CALM      30.08S FOG
MARION         FAIR      73  73 100 CALM      30.08F
HARTSVILLE     FAIR      73  72  94 CALM      30.10R
FLORENCE       CLEAR     76  73  91 S5        30.08S
DARLINGTON     CLEAR     73  70  88 S5        30.09S
CHARLESTON APT PTCLDY    78  75  90 CALM      30.07F
MOUNT PLEASANT FAIR      77  75  94 CALM      30.07F FOG
WALTERBORO     MOSUNNY   75 N/A N/A CALM      30.08F
BEAUFORT       PTCLDY    81  76  84 W5        30.07F


...EASTERN GEORGIA...

CITY           SKY/WX    TMP DP  RH WIND       PRES   REMARKS
AUGUSTA BUSH F PTCLDY    71  70  96 CALM      30.07F FOG
AUGUSTA DANIEL PTCLDY    75  73  93 S3        30.09F
THOMSON        CLEAR     74  74 100 CALM      30.13F
WASHINGTON     FAIR      77  77 100 CALM      30.10S
SYLVANIA       SUNNY     66  66 100 CALM      30.09F FOG
STATESBORO     CLEAR     73  73 100 CALM      30.08S
SAVANNAH       PTCLDY    75  71  87 SW5       30.08F


...SOUTHERN NORTH CAROLINA...

CITY           SKY/WX    TMP DP  RH WIND       PRES   REMARKS
CHARLOTTE      CLOUDY    73  69  87 S3        30.10S
MONROE         PTCLDY    73  70  90 SW5       30.09S
WADESBORO      MOSUNNY   72  69  91 CALM      30.08S
ROCKINGHAM     MOSUNNY   73  71  92 CALM      30.09R
RUTHERFORDTON  CLOUDY    69  68  98 CALM      30.12S
ASHEVILLE      CLOUDY    67  66  97 CALM      30.19R FOG

$$


USA.gov is the U.S. government's official web portal to all federal, state and local government web resources and services.